Kota Bharu, Malaysia

8:06 PM +08 on March 25, 2017 (GMT +0800)
Sultan Ismail Petra

Weather History for WMKC - February, 2014

Change the Weather History Date:

Tuesday, February 4, 2014

  Actual Average Record
Temperature  
Mean Temperature 74 °F -  
Max Temperature 85 °F 86 °F - ()
Min Temperature 64 °F 73 °F - ()
Cooling Degree Days 10    
Growing Degree Days 24 (Base 50)    
Moisture  
Dew Point 69 °F    
Average Humidity 80    
Maximum Humidity 94    
Minimum Humidity 54    
Precipitation  
Precipitation 0.00 in 0.07 in - ()
Sea Level Pressure  
Sea Level Pressure 29.76 in    
Wind  
Wind Speed 4 mph ()    
Max Wind Speed 12 mph    
Max Gust Speed -    
Visibility 6.3 miles    
Events      
T = Trace of Precipitation, MM = Missing Value Source: Averaged Metar Reports

Daily Weather History Graph

Daily Weather History Graph

Search for Another Location

Airport or City:

Trip Planner

Search our weather history database for the weather conditions in past years. The results will help you decide how hot, cold, wet, or windy it might be!

Date:

Astronomy

Feb. 04, 2014 Rise Set
Actual Time 7:28 AM +08 7:21 PM +08
Civil Twilight 7:06 AM +08 7:42 PM +08
Nautical Twilight 6:41 AM +08 8:07 PM +08
Astronomical Twilight 6:16 AM +08 8:32 PM +08
Moon 10:55 AM +08 (2/4) 11:26 PM +08 (2/4)
Length of Visible Light 12h 35m
Length of Day
11h 52m
Waxing Crescent, 23% of the Moon is Illuminated
Feb 4
Waxing Crescent
Feb 7
First Quarter
Feb 15
Full
Feb 23
Last Quarter
Mar 1
New

Hourly Weather History & Observations

Time (+08) Temp. Heat Index Dew Point Humidity Pressure Visibility Wind Dir Wind Speed Gust Speed Precip Events Conditions
12:00 AM 69.8 °F - 68.0 °F 94% 29.80 in 6.2 mi WSW 1.2 mph - N/A   Mostly Cloudy
1:00 AM 69.8 °F - 68.0 °F 94% 29.80 in 6.2 mi SSW 1.2 mph - N/A   Mostly Cloudy
2:00 AM 69 °F - 67 °F 92% 29.79 in 6 mi Calm Calm - -   Haze
2:00 AM 69.8 °F - 68.0 °F 94% 29.77 in 6.2 mi Calm Calm - N/A   Mostly Cloudy
3:00 AM 68.0 °F - 66.2 °F 94% 29.77 in 6.2 mi SSW 1.2 mph - N/A   Mostly Cloudy
4:00 AM 68.0 °F - 66.2 °F 94% 29.74 in 6.2 mi SSW 2.3 mph - N/A   Mostly Cloudy
5:00 AM 69 °F - 67 °F 93% 29.75 in 6 mi South 3.5 mph - -   Haze
5:00 AM 69.8 °F - 68.0 °F 94% 29.74 in 6.2 mi South 3.5 mph - N/A   Mostly Cloudy
6:00 AM 68.0 °F - 66.2 °F 94% 29.74 in 5.6 mi SSW 3.5 mph - N/A   Mostly Cloudy
7:00 AM 68.0 °F - 66.2 °F 94% 29.77 in 5.6 mi SSW 3.5 mph - N/A   Mostly Cloudy
8:00 AM 68 °F - 67 °F 94% 29.78 in 4 mi SSW 3.5 mph - -   Haze
8:00 AM 68.0 °F - 66.2 °F 94% 29.77 in 4.3 mi SSW 3.5 mph - N/A   Mostly Cloudy
9:00 AM 71.6 °F - 68.0 °F 88% 29.80 in 4.3 mi SSW 4.6 mph - N/A   Mostly Cloudy
10:00 AM 77.0 °F - 69.8 °F 78% 29.80 in 6.2 mi SSW 4.6 mph - N/A   Mostly Cloudy
11:00 AM 80 °F - 70 °F 64% 29.81 in 7 mi South 4.6 mph - -   Haze
11:00 AM 80.6 °F 83.9 °F 69.8 °F 70% 29.80 in 6.2 mi South 4.6 mph - N/A   Mostly Cloudy
12:00 PM 82.4 °F 86.3 °F 69.8 °F 66% 29.80 in 6.2 mi ESE 4.6 mph - N/A   Mostly Cloudy
1:00 PM 82.4 °F 86.3 °F 69.8 °F 66% 29.74 in 6.2 mi ENE 9.2 mph - N/A   Mostly Cloudy
2:00 PM 85 °F - 71 °F 54% 29.75 in 9 mi ENE 8.1 mph - -   Haze
2:00 PM 84.2 °F 89.6 °F 71.6 °F 66% 29.74 in 6.2 mi ENE 8.1 mph - N/A   Mostly Cloudy
3:00 PM 84.2 °F 88.4 °F 69.8 °F 62% 29.71 in 6.2 mi ENE 9.2 mph - N/A   Mostly Cloudy
4:00 PM 84.2 °F 89.6 °F 71.6 °F 66% 29.71 in 6.2 mi East 9.2 mph - N/A   Mostly Cloudy
5:00 PM 83 °F - 72 °F 61% 29.70 in 9 mi ENE 11.5 mph - -   Haze
5:00 PM 82.4 °F 87.2 °F 71.6 °F 70% 29.68 in 6.2 mi ENE 11.5 mph - N/A   Mostly Cloudy
6:00 PM 80.6 °F 83.9 °F 69.8 °F 70% 29.71 in 6.2 mi East 11.5 mph - N/A   Mostly Cloudy
7:00 PM 78.8 °F - 69.8 °F 74% 29.71 in 6.2 mi East 8.1 mph - N/A   Mostly Cloudy
8:00 PM 77 °F - 71 °F 75% 29.75 in 9 mi East 6.9 mph - -   Haze
8:00 PM 77.0 °F - 69.8 °F 78% 29.74 in 6.2 mi East 6.9 mph - N/A   Mostly Cloudy
9:00 PM 77.0 °F - 69.8 °F 78% 29.77 in 6.2 mi East 5.8 mph - N/A   Mostly Cloudy
10:00 PM 77.0 °F - 69.8 °F 78% 29.77 in 6.2 mi ESE 3.5 mph - N/A   Mostly Cloudy
11:00 PM 76 °F - 71 °F 80% 29.80 in 9 mi ESE 3.5 mph - -   Haze
11:00 PM 75.2 °F - 71.6 °F 89% 29.80 in 6.2 mi ESE 3.5 mph - N/A   Mostly Cloudy